Nuiqsut, AK

5:55 PM AKDT on June 28, 2017 (GMT -0800)
Nuiqsut

Weather History for PAQT - May, 2014

Change the Weather History Date:

Saturday, May 24, 2014

  Actual Average (PAKU) Record (PAKU)
Temperature  
Mean Temperature 22 °F -  
Max Temperature 26 °F 28 °F 62 °F (2002)
Min Temperature 19 °F 20 °F 5 °F (1983)
Degree Days  
Heating Degree Days 42    
Moisture  
Dew Point 17 °F    
Average Humidity 78    
Maximum Humidity 89    
Minimum Humidity 66    
Precipitation  
Precipitation 0.00 in - - ()
Sea Level Pressure  
Sea Level Pressure 29.98 in    
Wind  
Wind Speed 11 mph (East)    
Max Wind Speed 20 mph    
Max Gust Speed 24 mph    
Visibility 10 miles    
Events Snow    
Averages and records for this station are not official NWS values.
T = Trace of Precipitation, MM = Missing Value Source: NWS Daily Summary

Daily Weather History Graph

Daily Weather History Graph

Search for Another Location

Airport or City:

Trip Planner

Search our weather history database for the weather conditions in past years. The results will help you decide how hot, cold, wet, or windy it might be!

Date:

Astronomy

Dec. 31, 1969 Rise Set
Actual Time Sun does not set Sun does not set
Civil Twilight Sun does not set Sun does not set
Nautical Twilight Sun does not set Sun does not set
Astronomical Twilight Sun does not set Sun does not set
Moon 3:30 AM AKDT (5/24) 6:38 PM AKDT (5/24)
Length of Visible Light 24h 00m
Length of Day
24h 00m
Waning Crescent, 16% of the Moon is Illuminated
May 24
Waning Crescent
May 28
New
Jun 5
First Quarter
Jun 12
Full
Jun 19
Last Quarter

Hourly Weather History & Observations

Time (AKDT) Temp. Windchill Dew Point Humidity Pressure Visibility Wind Dir Wind Speed Gust Speed Precip Events Conditions
12:07 AM 19.9 °F 10.1 °F 17.1 °F 89% 30.13 in 4.0 mi SE 8.1 mph - 0.00 in Snow Light Snow
12:53 AM 19.9 °F 12.1 °F 17.1 °F 89% 30.13 in 8.0 mi ESE 5.8 mph - 0.00 in   Overcast
1:53 AM 19.9 °F 12.1 °F 16.0 °F 85% 30.12 in 10.0 mi SE 5.8 mph - 0.00 in   Overcast
2:53 AM 19.9 °F 12.1 °F 17.1 °F 89% 30.12 in 10.0 mi ESE 5.8 mph - 0.00 in   Overcast
3:53 AM 19.9 °F 13.4 °F 17.1 °F 89% 30.11 in 10.0 mi ESE 4.6 mph - 0.00 in   Overcast
4:53 AM 19.9 °F 13.4 °F 17.1 °F 89% 30.10 in 10.0 mi ESE 4.6 mph - 0.00 in   Overcast
5:53 AM 19.9 °F 12.1 °F 16.0 °F 85% 30.09 in 10.0 mi ESE 5.8 mph - N/A   Overcast
6:53 AM 19.9 °F 13.4 °F 16.0 °F 85% 30.08 in 10.0 mi ESE 4.6 mph - N/A   Overcast
7:53 AM 19.9 °F 11.1 °F 16.0 °F 85% 30.07 in 10.0 mi East 6.9 mph - N/A   Clear
8:53 AM 21.0 °F 12.4 °F 17.1 °F 85% 30.06 in 10.0 mi ESE 6.9 mph - N/A   Clear
9:53 AM 21.9 °F 11.0 °F 16.0 °F 78% 30.04 in 10.0 mi East 10.4 mph - N/A   Partly Cloudy
10:53 AM 23.0 °F 12.4 °F 15.1 °F 72% 30.03 in 10.0 mi ESE 10.4 mph - N/A   Clear
11:53 AM 24.1 °F 11.0 °F 16.0 °F 71% 30.01 in 10.0 mi East 16.1 mph - N/A   Partly Cloudy
12:53 PM 25.0 °F 13.6 °F 15.1 °F 66% 30.01 in 10.0 mi East 12.7 mph - N/A   Partly Cloudy
1:53 PM 25.0 °F 12.6 °F 15.1 °F 66% 29.99 in 10.0 mi East 15.0 mph - N/A   Clear
2:43 PM 26.1 °F 14.0 °F 17.1 °F 69% 29.97 in 10.0 mi East 15.0 mph - N/A   Mostly Cloudy
2:53 PM 26.1 °F 13.6 °F 16.0 °F 66% 29.97 in 10.0 mi East 16.1 mph - N/A   Mostly Cloudy
3:18 PM 24.1 °F 10.6 °F 15.1 °F 69% 29.97 in 10.0 mi East 17.3 mph - N/A   Scattered Clouds
3:51 PM 26.6 °F 15.2 °F 17.6 °F 69% 29.96 in 10.0 mi East 13.8 mph - N/A   Mostly Cloudy
3:53 PM 25.0 °F 12.6 °F 16.0 °F 69% 29.96 in 10.0 mi East 15.0 mph - N/A   Mostly Cloudy
4:49 PM 24.8 °F 11.5 °F 15.8 °F 69% 29.94 in 10.0 mi East 17.3 mph - N/A   Scattered Clouds
4:53 PM 25.0 °F 12.2 °F 16.0 °F 69% 29.95 in 10.0 mi East 16.1 mph - N/A   Scattered Clouds
5:28 PM 25.0 °F 11.3 °F 17.1 °F 72% 29.93 in 10.0 mi East 18.4 mph 24.2 mph N/A   Mostly Cloudy
5:39 PM 25.0 °F 11.3 °F 17.1 °F 72% 29.93 in 10.0 mi East 18.4 mph - N/A   Mostly Cloudy
5:53 PM 24.1 °F 10.6 °F 17.1 °F 75% 29.93 in 10.0 mi East 17.3 mph - N/A   Mostly Cloudy
6:53 PM 24.1 °F 10.6 °F 17.1 °F 75% 29.92 in 10.0 mi East 17.3 mph - N/A   Overcast
7:53 PM 24.1 °F 10.1 °F 17.1 °F 75% 29.89 in 10.0 mi East 18.4 mph - N/A   Overcast
8:53 PM 24.1 °F 10.1 °F 17.1 °F 75% 29.87 in 10.0 mi East 18.4 mph - N/A   Overcast
9:53 PM 23.0 °F 9.2 °F 18.0 °F 81% 29.86 in 10.0 mi East 17.3 mph - N/A   Overcast
10:04 PM 23.0 °F 8.3 °F 18.0 °F 81% 29.85 in 10.0 mi East 19.6 mph - N/A   Overcast
10:16 PM 23.0 °F 9.6 °F 18.0 °F 81% 29.84 in 10.0 mi East 16.1 mph - N/A   Overcast
10:53 PM 21.9 °F 6.9 °F 18.0 °F 85% 29.83 in 10.0 mi East 19.6 mph - N/A   Overcast
11:53 PM 21.9 °F 6.9 °F 18.0 °F 85% 29.81 in 10.0 mi East 19.6 mph - N/A   Overcast